Location: Kalberh�ni
(46.4610°N, 7.2453°E)
Time: 05:53:52
(UTC+00:00)

Cosmos 2333 Rocket - Pass Details

Date: 24 October 2021
Orbit: 837 x 865 km, 70.8° (Epoch: 05 December)

Event Time Altitude Azimuth Distance (km) Brightness Sun altitude
Exits shadow 03:25:10 - 340° (NNW) 3,094 5.1 -27.4°
Reaches altitude 10° 03:26:52 10° 346° (NNW) 2,506 4.6 -27.1°
Maximum altitude 03:32:10 36° 53° (NE) 1,339 3.7 -26.2°
Drops below altitude 10° 03:37:27 10° 119° (ESE) 2,503 5.3 -25.3°
Sets 03:40:06 0° 128° (SE) 3,437 6.0 -24.9°
